Location: The Saddle
(36.8333°N, 80.3417°W)
Time: 16:08:03
(UTC-05:00)

A-11 Canister half - Pass Details

Date: 17 December 2023
Orbit: 1512 x 1687 km, 47.2° (Epoch: 29 February)

Event Time Altitude Azimuth Distance (km) Brightness Sun altitude
Rises 00:19:51 0° 285° (WNW) 4,712 - -76.5°
Reaches altitude 10° 00:23:06 10° 292° (WNW) 3,750 - -76.5°
Maximum altitude 00:32:10 46° 4° (N) 2,063 - -76.1°
Drops below altitude 10° 00:41:34 10° 75° (ENE) 3,883 - -75.5°
Sets 00:44:59 0° 82° (E) 4,891 - -75.2°
